User: anonymous
Location: Voyageurs National Park
(48.5020°N, 92.9292°W)
Time: 10:08:28
(UTC-05:00)
Language:

Terra - Orbit

View from above orbital plane
View from above orbital plane
View from above satellite
View from above satellite

Ground track
Ground track

The orbit data is extracted from the following two-line orbital elements,

1 25994U 99068A   14294.24803694  .00000671  00000-0  15896-3 0  7452
2 25994 098.2007 007.1694 0001452 094.8821 265.2560 14.57123294789422
Epoch (UTC): 21 October 2014 05:57:10
Eccentricity: 0.0001452
inclination: 98.2007°
perigee height: 701 km
apogee height: 703 km
right ascension of ascending node: 7.1694°
argument of perigee: 94.8821°
revolutions per day: 14.57123294
mean anomaly at epoch: 265.2560°
orbit number at epoch: 78942

The dashed part of the orbit path shows where the satellite is in the earth's shadow,  

DLR